Location: Newark
(47.0667°N, 8.7500°E)
Time: 03:22:22
(UTC+00:00)

ISS - Visible Passes

Search period start: 02 December 2020 00:00
Search period end: 12 December 2020 00:00
Orbit: 418 x 420 km, 51.6° (Epoch: 02 December)

Date Brightness Start Highest point End Pass type
(mag) Time Alt. Az. Time Alt. Az. Time Alt. Az.
02 Dec -3.3 17:16:37 10° WNW 17:19:53 45° NNE 17:20:21 41° NE visible
03 Dec -3.1 16:29:01 10° WNW 16:32:13 39° N 16:34:51 14° ENE visible
03 Dec -2.0 18:05:51 10° WNW 18:07:49 32° WNW 18:07:49 32° WNW visible
04 Dec -3.9 17:18:16 10° WNW 17:21:39 74° NNE 17:22:24 50° E visible
05 Dec -3.6 16:30:42 10° WNW 16:34:01 55° NNE 16:37:06 12° E visible
05 Dec -1.9 18:07:39 10° WNW 18:10:05 31° WSW 18:10:05 31° WSW visible
06 Dec -3.1 17:19:56 10° WNW 17:23:13 52° SSW 17:24:59 24° SE visible
07 Dec -3.6 16:32:17 10° WNW 16:35:39 79° SSW 16:39:01 10° ESE visible
07 Dec -0.9 18:10:04 10° W 18:12:00 15° SW 18:13:08 13° SSW visible
08 Dec -1.3 17:21:52 10° W 17:24:34 22° SW 17:27:15 10° SSE visible
09 Dec -2.0 16:33:59 10° WNW 16:37:04 34° SW 16:40:09 10° SSE visible
11 Dec -0.5 16:36:18 10° W 16:38:15 15° SW 16:40:11 10° S visible
